PAA1202 EDDF-LOWW

Flight info

Callsign PAA1202
Flight time 1h 1m
Altitude 31000
Route SULUS7S/18 SULUS Z650 VEMUT/N0467F290 DCT BUDEX BUDEX2W
Aircraft A320/M-SDE3FGHIRWY/LB1

Departure

Time 2026-05-06 17:34
Airport Frankfurt Main Airport (EDDF)

Arrival

Time 2026-05-06 18:35
Airport Vienna International Airport (LOWW)
Time Latitude Longitude Altitude Speed Heading
2026-05-06 17:01 50.04827 8.58569 353 ft 0 kts 159°
2026-05-06 17:09 50.04837 8.58563 348 ft 4 kts 161°
2026-05-06 17:10 50.04863 8.58552 345 ft 4 kts 172°
2026-05-06 17:10 50.04889 8.58552 353 ft 4 kts 198°
2026-05-06 17:10 50.04907 8.58569 345 ft 1 kts 245°
2026-05-06 17:10 50.04908 8.58576 345 ft 0 kts 245°
2026-05-06 17:17 50.04907 8.58570 354 ft 3 kts 245°
2026-05-06 17:17 50.04902 8.58551 345 ft 1 kts 249°
2026-05-06 17:17 50.04892 8.58508 350 ft 7 kts 249°
2026-05-06 17:18 50.04875 8.58439 350 ft 7 kts 249°
2026-05-06 17:18 50.04859 8.58376 355 ft 6 kts 249°
2026-05-06 17:18 50.04847 8.58324 345 ft 5 kts 249°
2026-05-06 17:18 50.04827 8.58244 350 ft 11 kts 249°
2026-05-06 17:19 50.04796 8.58112 345 ft 14 kts 250°
2026-05-06 17:19 50.04757 8.57970 350 ft 15 kts 235°
2026-05-06 17:19 50.04694 8.57838 345 ft 16 kts 248°
2026-05-06 17:19 50.04654 8.57673 353 ft 17 kts 249°
2026-05-06 17:20 50.04626 8.57554 353 ft 18 kts 250°
2026-05-06 17:20 50.04579 8.57362 352 ft 20 kts 249°
2026-05-06 17:20 50.04528 8.57151 356 ft 21 kts 249°
2026-05-06 17:20 50.04475 8.56928 349 ft 23 kts 250°
2026-05-06 17:21 50.04427 8.56728 353 ft 19 kts 248°
2026-05-06 17:21 50.04382 8.56538 349 ft 19 kts 249°
2026-05-06 17:21 50.04347 8.56393 345 ft 13 kts 249°
2026-05-06 17:21 50.04323 8.56291 345 ft 7 kts 250°
2026-05-06 17:22 50.04320 8.56279 351 ft 0 kts 250°
2026-05-06 17:22 50.04318 8.56271 355 ft 6 kts 250°
2026-05-06 17:22 50.04290 8.56149 352 ft 13 kts 249°
2026-05-06 17:22 50.04257 8.56011 353 ft 14 kts 249°
2026-05-06 17:23 50.04221 8.55859 354 ft 16 kts 249°
2026-05-06 17:23 50.04180 8.55692 349 ft 17 kts 249°
2026-05-06 17:23 50.04136 8.55508 352 ft 19 kts 249°
2026-05-06 17:23 50.04088 8.55309 349 ft 20 kts 249°
2026-05-06 17:24 50.04037 8.55094 353 ft 22 kts 250°
2026-05-06 17:24 50.03985 8.54863 346 ft 23 kts 251°
2026-05-06 17:24 50.03928 8.54629 346 ft 23 kts 250°
2026-05-06 17:24 50.03877 8.54422 353 ft 21 kts 249°
2026-05-06 17:25 50.03804 8.54234 347 ft 20 kts 244°
2026-05-06 17:25 50.03757 8.54042 356 ft 19 kts 249°
2026-05-06 17:25 50.03712 8.53854 350 ft 18 kts 249°
2026-05-06 17:25 50.03668 8.53670 355 ft 17 kts 248°
2026-05-06 17:26 50.03624 8.53501 346 ft 16 kts 249°
2026-05-06 17:26 50.03586 8.53337 354 ft 16 kts 250°
2026-05-06 17:26 50.03549 8.53184 348 ft 14 kts 250°
2026-05-06 17:26 50.03522 8.53070 350 ft 8 kts 249°
2026-05-06 17:27 50.03514 8.53037 345 ft 0 kts 250°
2026-05-06 17:28 50.03514 8.53036 354 ft 1 kts 250°
2026-05-06 17:28 50.03513 8.53030 348 ft 0 kts 250°
2026-05-06 17:28 50.03504 8.52997 353 ft 4 kts 249°
2026-05-06 17:29 50.03501 8.52985 349 ft 0 kts 249°
2026-05-06 17:29 50.03496 8.52964 352 ft 7 kts 249°
2026-05-06 17:29 50.03477 8.52887 355 ft 8 kts 248°
2026-05-06 17:29 50.03462 8.52832 353 ft 2 kts 247°
2026-05-06 17:30 50.03460 8.52823 346 ft 0 kts 247°
2026-05-06 17:30 50.03452 8.52794 351 ft 12 kts 247°
2026-05-06 17:30 50.03418 8.52667 353 ft 13 kts 247°
2026-05-06 17:30 50.03350 8.52595 347 ft 12 kts 185°
2026-05-06 17:31 50.03322 8.52593 345 ft 0 kts 182°
2026-05-06 17:33 50.03321 8.52593 355 ft 1 kts 182°
2026-05-06 17:33 50.03162 8.52585 346 ft 61 kts 181°
2026-05-06 17:33 50.02470 8.52598 346 ft 134 kts 179°
2026-05-06 17:34 50.01352 8.52574 502 ft 175 kts 182°
2026-05-06 17:34 50.00093 8.52566 1093 ft 195 kts 181°
2026-05-06 17:34 49.98657 8.52614 1657 ft 212 kts 181°
2026-05-06 17:34 49.97200 8.52989 2491 ft 221 kts 158°
2026-05-06 17:35 49.95956 8.54548 3103 ft 240 kts 124°
2026-05-06 17:35 49.95115 8.56836 3783 ft 247 kts 120°
2026-05-06 17:35 49.94337 8.59200 3956 ft 247 kts 110°
2026-05-06 17:36 49.93900 8.64838 4565 ft 280 kts 94°
2026-05-06 17:36 49.93540 8.67773 5621 ft 278 kts 112°
2026-05-06 17:36 49.92592 8.70413 6548 ft 277 kts 132°
2026-05-06 17:36 49.91193 8.72396 7411 ft 277 kts 148°
2026-05-06 17:37 49.89612 8.74124 8290 ft 280 kts 144°
2026-05-06 17:37 49.88223 8.76283 9116 ft 287 kts 129°
2026-05-06 17:37 49.87170 8.78943 9923 ft 292 kts 121°
2026-05-06 17:37 49.86177 8.81719 10559 ft 301 kts 121°
2026-05-06 17:38 49.85111 8.84669 10763 ft 327 kts 121°
2026-05-06 17:38 49.83948 8.87875 10810 ft 353 kts 121°
2026-05-06 17:38 49.82728 8.91241 10812 ft 361 kts 121°
2026-05-06 17:38 49.81494 8.94637 10814 ft 363 kts 121°
2026-05-06 17:39 49.80254 8.98041 10812 ft 363 kts 121°
2026-05-06 17:39 49.79012 9.01442 10813 ft 363 kts 121°
2026-05-06 17:39 49.77772 9.04843 10812 ft 363 kts 121°
2026-05-06 17:39 49.76579 9.08287 10811 ft 364 kts 115°
2026-05-06 17:40 49.75766 9.12030 11139 ft 372 kts 104°
2026-05-06 17:40 49.75173 9.15923 11976 ft 373 kts 105°
2026-05-06 17:40 49.74548 9.19823 12751 ft 374 kts 105°
2026-05-06 17:40 49.73904 9.23745 13469 ft 378 kts 106°
2026-05-06 17:41 49.73251 9.27698 14156 ft 381 kts 106°
2026-05-06 17:41 49.72592 9.31686 14806 ft 385 kts 106°
2026-05-06 17:41 49.71926 9.35717 15434 ft 389 kts 106°
2026-05-06 17:41 49.71257 9.39784 16033 ft 393 kts 107°
2026-05-06 17:42 49.70581 9.43893 16620 ft 396 kts 107°
2026-05-06 17:42 49.69903 9.48035 17177 ft 400 kts 107°
2026-05-06 17:42 49.69216 9.52220 17723 ft 403 kts 107°
2026-05-06 17:42 49.68524 9.56436 18244 ft 407 kts 107°
2026-05-06 17:43 49.67830 9.60685 18772 ft 411 kts 106°
2026-05-06 17:43 49.67416 9.65080 19281 ft 418 kts 96°
2026-05-06 17:43 49.67506 9.69595 19791 ft 424 kts 85°
2026-05-06 17:43 49.68112 9.74075 20278 ft 429 kts 76°
2026-05-06 17:44 49.68910 9.78527 20758 ft 432 kts 76°
2026-05-06 17:44 49.69707 9.83016 21234 ft 435 kts 76°
2026-05-06 17:44 49.70491 9.87474 21704 ft 437 kts 77°
2026-05-06 17:44 49.71359 9.91990 22149 ft 441 kts 71°
2026-05-06 17:45 49.72660 9.96370 22562 ft 446 kts 62°
2026-05-06 17:45 49.74377 10.00383 22983 ft 449 kts 55°
2026-05-06 17:45 49.76210 10.04305 23414 ft 451 kts 55°
2026-05-06 17:45 49.78049 10.08259 23815 ft 454 kts 55°
2026-05-06 17:46 49.79888 10.12239 24201 ft 456 kts 55°
2026-05-06 17:46 49.81734 10.16252 24565 ft 459 kts 55°
2026-05-06 17:46 49.83589 10.20291 24918 ft 462 kts 56°
2026-05-06 17:46 49.85453 10.24360 25258 ft 465 kts 56°
2026-05-06 17:47 49.87330 10.28458 25600 ft 468 kts 56°
2026-05-06 17:47 49.89219 10.32583 25926 ft 471 kts 56°
2026-05-06 17:47 49.91119 10.36737 26258 ft 473 kts 56°
2026-05-06 17:47 49.93026 10.40911 26571 ft 476 kts 56°
2026-05-06 17:48 49.94942 10.45110 26883 ft 478 kts 56°
2026-05-06 17:48 49.96869 10.49342 27152 ft 481 kts 56°
2026-05-06 17:48 49.98778 10.53542 27413 ft 484 kts 56°
2026-05-06 17:48 50.00721 10.57828 27684 ft 486 kts 57°
2026-05-06 17:49 50.02604 10.62196 27955 ft 487 kts 62°
2026-05-06 17:49 50.04044 10.66944 28212 ft 485 kts 73°
2026-05-06 17:49 50.04955 10.71989 28460 ft 483 kts 83°
2026-05-06 17:49 50.05328 10.77168 28690 ft 481 kts 92°
2026-05-06 17:50 50.05162 10.82341 28950 ft 476 kts 102°
2026-05-06 17:50 50.04472 10.87334 29314 ft 469 kts 112°
2026-05-06 17:50 50.03468 10.92154 29660 ft 468 kts 113°
2026-05-06 17:50 50.02453 10.96956 30028 ft 467 kts 114°
2026-05-06 17:51 50.01432 11.01754 30345 ft 467 kts 114°
2026-05-06 17:51 50.00407 11.06547 30645 ft 468 kts 114°
2026-05-06 17:51 49.99563 11.11467 30766 ft 474 kts 108°
2026-05-06 17:51 49.98874 11.16472 30787 ft 475 kts 107°
2026-05-06 17:52 49.97563 11.26545 30786 ft 476 kts 107°
2026-05-06 17:52 49.96260 11.36647 30787 ft 477 kts 107°
2026-05-06 17:53 49.94918 11.46746 30774 ft 477 kts 107°
2026-05-06 17:53 49.93544 11.56832 30773 ft 477 kts 108°
2026-05-06 17:54 49.92162 11.66900 30764 ft 477 kts 107°
2026-05-06 17:54 49.90788 11.76977 30760 ft 478 kts 107°
2026-05-06 17:55 49.89405 11.87050 30758 ft 478 kts 108°
2026-05-06 17:55 49.88011 11.97119 30755 ft 478 kts 108°
2026-05-06 17:56 49.86600 12.07185 30755 ft 478 kts 108°
2026-05-06 17:56 49.85193 12.17250 30756 ft 478 kts 108°
2026-05-06 17:57 49.83774 12.27306 30756 ft 478 kts 108°
2026-05-06 17:57 49.82335 12.37346 30758 ft 478 kts 108°
2026-05-06 17:58 49.80337 12.47034 30757 ft 467 kts 122°
2026-05-06 17:58 49.76941 12.55431 30758 ft 459 kts 131°
2026-05-06 17:59 49.73311 12.63544 30757 ft 459 kts 131°
2026-05-06 17:59 49.69679 12.71652 30754 ft 459 kts 131°
2026-05-06 18:00 49.66044 12.79755 30751 ft 459 kts 131°
2026-05-06 18:00 49.62404 12.87845 30748 ft 459 kts 131°
2026-05-06 18:01 49.58780 12.95868 30746 ft 459 kts 131°
2026-05-06 18:01 49.55122 13.03932 30745 ft 459 kts 131°
2026-05-06 18:02 49.51469 13.11999 30742 ft 459 kts 131°
2026-05-06 18:02 49.47792 13.20031 30738 ft 459 kts 131°
2026-05-06 18:03 49.44113 13.28067 30747 ft 459 kts 131°
2026-05-06 18:03 49.40441 13.36102 30743 ft 460 kts 131°
2026-05-06 18:04 49.37355 13.42821 30737 ft 459 kts 131°
2026-05-06 18:04 49.33659 13.50811 30738 ft 459 kts 131°
2026-05-06 18:05 49.29956 13.58801 30729 ft 460 kts 131°
2026-05-06 18:05 49.26280 13.66726 30728 ft 460 kts 131°
2026-05-06 18:06 49.22551 13.74671 30729 ft 458 kts 132°
2026-05-06 18:06 49.18772 13.82526 30723 ft 458 kts 133°
2026-05-06 18:07 49.14981 13.90352 30722 ft 458 kts 133°
2026-05-06 18:07 49.13083 13.94268 30593 ft 457 kts 133°
2026-05-06 18:07 49.11196 13.98165 29915 ft 457 kts 133°
2026-05-06 18:08 49.09301 14.02073 29653 ft 459 kts 133°
2026-05-06 18:08 49.07397 14.05997 29403 ft 462 kts 132°
2026-05-06 18:08 49.05484 14.09941 29155 ft 463 kts 132°
2026-05-06 18:08 49.03567 14.13888 28903 ft 463 kts 132°
2026-05-06 18:09 49.01649 14.17824 28654 ft 463 kts 132°
2026-05-06 18:09 48.99726 14.21760 28400 ft 464 kts 131°
2026-05-06 18:09 48.97797 14.25704 28142 ft 464 kts 132°
2026-05-06 18:09 48.95863 14.29644 27902 ft 465 kts 132°
2026-05-06 18:10 48.93958 14.33535 27653 ft 452 kts 132°
2026-05-06 18:10 48.92106 14.37333 27395 ft 442 kts 132°
2026-05-06 18:10 48.90279 14.41068 27144 ft 439 kts 132°
2026-05-06 18:10 48.88461 14.44771 26893 ft 436 kts 132°
2026-05-06 18:11 48.86648 14.48452 26631 ft 434 kts 132°
2026-05-06 18:11 48.84832 14.52117 26368 ft 433 kts 132°
2026-05-06 18:11 48.83024 14.55756 26117 ft 432 kts 132°
2026-05-06 18:11 48.81245 14.59341 25870 ft 430 kts 132°
2026-05-06 18:12 48.79451 14.62961 25617 ft 429 kts 132°
2026-05-06 18:12 48.77661 14.66567 25368 ft 427 kts 132°
2026-05-06 18:12 48.75877 14.70163 25120 ft 426 kts 132°
2026-05-06 18:12 48.74101 14.73738 24875 ft 424 kts 132°
2026-05-06 18:13 48.72330 14.77301 24618 ft 423 kts 132°
2026-05-06 18:13 48.70566 14.80843 24372 ft 421 kts 132°
2026-05-06 18:13 48.68803 14.84375 24120 ft 419 kts 132°
2026-05-06 18:13 48.67050 14.87887 23869 ft 417 kts 132°
2026-05-06 18:14 48.65299 14.91382 23616 ft 416 kts 133°
2026-05-06 18:14 48.63554 14.94855 23365 ft 414 kts 133°
2026-05-06 18:14 48.61812 14.98317 23117 ft 413 kts 133°
2026-05-06 18:14 48.60144 15.01850 22861 ft 415 kts 126°
2026-05-06 18:15 48.58814 15.05743 22521 ft 420 kts 118°
2026-05-06 18:15 48.57878 15.09949 21811 ft 426 kts 109°
2026-05-06 18:15 48.57154 15.14260 21354 ft 420 kts 109°
2026-05-06 18:15 48.56440 15.18490 20905 ft 413 kts 109°
2026-05-06 18:16 48.55725 15.22665 20396 ft 409 kts 109°
2026-05-06 18:16 48.55009 15.26795 19914 ft 404 kts 109°
2026-05-06 18:16 48.54306 15.30847 19656 ft 395 kts 109°
2026-05-06 18:16 48.53611 15.34825 19260 ft 390 kts 109°
2026-05-06 18:17 48.52923 15.38747 18729 ft 383 kts 109°
2026-05-06 18:17 48.52257 15.42611 17883 ft 379 kts 107°
2026-05-06 18:17 48.51867 15.46537 17121 ft 380 kts 98°
2026-05-06 18:17 48.51661 15.50515 16849 ft 380 kts 99°
2026-05-06 18:18 48.51443 15.54487 16736 ft 379 kts 99°
2026-05-06 18:18 48.51215 15.58449 16756 ft 380 kts 99°
2026-05-06 18:18 48.50986 15.62378 16752 ft 369 kts 99°
2026-05-06 18:18 48.50771 15.66152 16752 ft 353 kts 99°
2026-05-06 18:19 48.50563 15.69789 16757 ft 345 kts 99°
2026-05-06 18:19 48.50352 15.73375 16768 ft 343 kts 100°
2026-05-06 18:19 48.50137 15.76949 16774 ft 342 kts 100°
2026-05-06 18:19 48.49922 15.80510 16657 ft 338 kts 100°
2026-05-06 18:20 48.49714 15.84025 16011 ft 335 kts 99°
2026-05-06 18:20 48.49510 15.87467 15389 ft 333 kts 99°
2026-05-06 18:20 48.49301 15.90972 14778 ft 330 kts 99°
2026-05-06 18:20 48.49103 15.94311 14390 ft 319 kts 99°
2026-05-06 18:21 48.48904 15.97615 13881 ft 315 kts 100°
2026-05-06 18:21 48.48705 16.00880 13343 ft 312 kts 100°
2026-05-06 18:21 48.48507 16.04125 12901 ft 310 kts 100°
2026-05-06 18:21 48.48308 16.07354 12618 ft 307 kts 101°
2026-05-06 18:22 48.47926 16.10490 12297 ft 302 kts 110°
2026-05-06 18:22 48.47279 16.13469 11983 ft 297 kts 116°
2026-05-06 18:22 48.46553 16.16381 11662 ft 296 kts 116°
2026-05-06 18:22 48.45834 16.19278 11346 ft 294 kts 116°
2026-05-06 18:23 48.45121 16.22153 11059 ft 292 kts 116°
2026-05-06 18:23 48.44412 16.25008 10738 ft 290 kts 116°
2026-05-06 18:23 48.43713 16.27837 10523 ft 285 kts 116°
2026-05-06 18:23 48.43004 16.30532 10332 ft 268 kts 123°
2026-05-06 18:24 48.42060 16.32852 9938 ft 254 kts 134°
2026-05-06 18:24 48.40902 16.34822 9601 ft 248 kts 143°
2026-05-06 18:24 48.39577 16.36429 9328 ft 241 kts 153°
2026-05-06 18:24 48.38156 16.37607 9097 ft 227 kts 161°
2026-05-06 18:25 48.36711 16.38434 8668 ft 219 kts 169°
2026-05-06 18:25 48.35234 16.38736 8185 ft 212 kts 186°
2026-05-06 18:25 48.33810 16.38265 7774 ft 210 kts 204°
2026-05-06 18:25 48.32579 16.37108 7464 ft 209 kts 221°
2026-05-06 18:26 48.31676 16.35390 7185 ft 211 kts 238°
2026-05-06 18:26 48.31214 16.33321 7053 ft 209 kts 255°
2026-05-06 18:26 48.31079 16.31162 6872 ft 206 kts 257°
2026-05-06 18:26 48.30950 16.29027 6667 ft 204 kts 257°
2026-05-06 18:27 48.30867 16.26931 6456 ft 205 kts 263°
2026-05-06 18:27 48.31044 16.24783 6231 ft 210 kts 274°
2026-05-06 18:27 48.31146 16.22670 5972 ft 198 kts 253°
2026-05-06 18:27 48.30799 16.20688 5684 ft 195 kts 246°
2026-05-06 18:28 48.30387 16.18752 5401 ft 195 kts 246°
2026-05-06 18:28 48.29765 16.17022 5127 ft 186 kts 218°
2026-05-06 18:28 48.28624 16.16329 5010 ft 180 kts 185°
2026-05-06 18:28 48.27383 16.16480 5001 ft 180 kts 177°
2026-05-06 18:29 48.26153 16.16925 5002 ft 187 kts 160°
2026-05-06 18:29 48.25069 16.18099 5006 ft 196 kts 147°
2026-05-06 18:29 48.24066 16.19460 4997 ft 190 kts 146°
2026-05-06 18:29 48.23127 16.20792 5031 ft 183 kts 145°
2026-05-06 18:30 48.22353 16.22349 5012 ft 190 kts 130°
2026-05-06 18:30 48.21732 16.24116 4876 ft 191 kts 127°
2026-05-06 18:30 48.21145 16.25904 4649 ft 191 kts 126°
2026-05-06 18:30 48.20572 16.27685 4411 ft 189 kts 126°
2026-05-06 18:31 48.20010 16.29433 4152 ft 184 kts 126°
2026-05-06 18:31 48.19460 16.31143 3904 ft 181 kts 126°
2026-05-06 18:31 48.18920 16.32823 3636 ft 178 kts 126°
2026-05-06 18:31 48.18380 16.34491 3400 ft 177 kts 126°
2026-05-06 18:32 48.17843 16.36152 3157 ft 177 kts 126°
2026-05-06 18:32 48.17310 16.37807 2913 ft 175 kts 127°
2026-05-06 18:32 48.16788 16.39426 2677 ft 170 kts 124°
2026-05-06 18:32 48.16264 16.41040 2435 ft 172 kts 123°
2026-05-06 18:33 48.15761 16.42604 2207 ft 159 kts 121°
2026-05-06 18:33 48.15310 16.44002 2002 ft 142 kts 122°
2026-05-06 18:33 48.14888 16.45303 1813 ft 137 kts 120°
2026-05-06 18:33 48.14476 16.46568 1634 ft 134 kts 119°
2026-05-06 18:34 48.14076 16.47820 1456 ft 133 kts 119°
2026-05-06 18:34 48.13676 16.49068 1277 ft 134 kts 118°
2026-05-06 18:34 48.13284 16.50329 1059 ft 134 kts 118°
2026-05-06 18:34 48.12873 16.51575 894 ft 134 kts 119°
2026-05-06 18:35 48.12451 16.52823 685 ft 135 kts 118°
2026-05-06 18:35 48.12053 16.54048 603 ft 122 kts 117°
2026-05-06 18:35 48.11734 16.55015 617 ft 89 kts 117°
2026-05-06 18:35 48.11538 16.55615 625 ft 37 kts 112°
2026-05-06 18:36 48.11505 16.55962 621 ft 29 kts 86°
2026-05-06 18:36 48.11527 16.56095 620 ft 5 kts 57°
2026-05-06 18:36 48.11528 16.56097 617 ft 0 kts 56°
2026-05-06 18:37 48.11537 16.56113 617 ft 10 kts 48°
2026-05-06 18:37 48.11602 16.56071 616 ft 6 kts 298°
2026-05-06 18:37 48.11616 16.56031 617 ft 3 kts 297°
2026-05-06 18:38 48.11631 16.55986 617 ft 12 kts 296°
2026-05-06 18:38 48.11669 16.55860 616 ft 13 kts 295°
2026-05-06 18:38 48.11711 16.55731 614 ft 14 kts 295°
2026-05-06 18:38 48.11752 16.55607 617 ft 13 kts 296°
2026-05-06 18:39 48.11793 16.55484 612 ft 14 kts 296°
2026-05-06 18:39 48.11873 16.55431 610 ft 14 kts
2026-05-06 18:39 48.11959 16.55469 608 ft 13 kts 24°
2026-05-06 18:40 48.12061 16.55602 597 ft 8 kts 100°
2026-05-06 18:40 48.12052 16.55634 597 ft 0 kts 118°